Weather History for Muncie, IN

Change the Weather History Date:

Thursday, October 4, 2012

  Actual Average Record
Temperature  
Mean Temperature 66 °F 58 °F  
Max Temperature 77 °F 69 °F 87 °F (1967)
Min Temperature 54 °F 47 °F 28 °F (1989)
Degree Days  
Heating Degree Days 0 8  
Month to date heating degree days 20 31  
Since 1 July heating degree days 145 132  
Cooling Degree Days 1 1  
Month to date cooling degree days 1 4  
Year to date cooling degree days 1142 943  
Growing Degree Days 16 (Base 50)    
Moisture  
Dew Point 51 °F    
Average Humidity 59    
Maximum Humidity 77    
Minimum Humidity 40    
Precipitation  
Precipitation 0.00 in 0.10 in 1.39 in (1973)
Month to date precipitation 0.77 0.41  
Year to date precipitation 25.33 31.28  
Sea Level Pressure  
Sea Level Pressure 30.11 in    
Wind  
Wind Speed 8 mph (SW)    
Max Wind Speed 18 mph    
Max Gust Speed 26 mph    
Visibility 10 miles    
Events      
T = Trace of Precipitation, MM = Missing Value Source: NWS Daily Summary

Daily Weather History Graph

Daily Weather History Graph

Search for Another Location

Airport:

Trip Planner

Search our weather history database for the weather conditions in past years. The results will help you decide how hot, cold, wet, or windy it might be!

Date:

Astronomy

Oct. 04, 2012 Rise Set
Actual Time 7:41 AM EDT 7:18 PM EDT
Civil Twilight 7:14 AM EDT 7:45 PM EDT
Nautical Twilight 6:42 AM EDT 8:16 PM EDT
Astronomical Twilight 6:11 AM EDT 8:48 PM EDT
Moon 9:52 PM EDT (10/4) 11:58 AM EDT (10/4)
Length of Visible Light 12h 30m
Length of Day
11h 36m
Waning Gibbous, 82% of the Moon is Illuminated
Oct 4
Waning Gibbous
Oct 8
Last Quarter
Oct 15
New
Oct 21
First Quarter
Oct 29
Full

Hourly Weather History & Observations

Time (EDT) Temp. Dew Point Humidity Pressure Visibility Wind Dir Wind Speed Gust Speed Precip Events Conditions
12:53 AM 59.0 °F 48.9 °F 69% 30.10 in 10.0 mi South 6.9 mph - N/A   Clear
1:53 AM 57.9 °F 48.9 °F 72% 30.10 in 10.0 mi South 5.8 mph - N/A   Clear
2:53 AM 57.9 °F 48.9 °F 72% 30.10 in 10.0 mi South 6.9 mph - N/A   Clear
3:53 AM 57.0 °F 48.9 °F 74% 30.10 in 10.0 mi South 6.9 mph - N/A   Clear
4:53 AM 55.9 °F 48.0 °F 75% 30.11 in 10.0 mi SSW 4.6 mph - N/A   Partly Cloudy
5:53 AM 55.9 °F 48.9 °F 77% 30.12 in 10.0 mi SSW 3.5 mph - N/A   Mostly Cloudy
6:53 AM 55.9 °F 48.9 °F 77% 30.13 in 10.0 mi SSW 4.6 mph - N/A   Partly Cloudy
7:53 AM 55.0 °F 48.9 °F 80% 30.14 in 10.0 mi South 5.8 mph - N/A   Clear
8:53 AM 59.0 °F 50.0 °F 72% 30.14 in 10.0 mi SSW 8.1 mph - N/A   Mostly Cloudy
9:53 AM 62.1 °F 52.0 °F 70% 30.15 in 10.0 mi WSW 8.1 mph - N/A   Overcast
10:53 AM 64.9 °F 52.0 °F 63% 30.16 in 10.0 mi WSW 9.2 mph 16.1 mph N/A   Clear
11:53 AM 69.1 °F 53.1 °F 57% 30.15 in 10.0 mi SSW 10.4 mph - N/A   Clear
12:53 PM 73.0 °F 53.1 °F 49% 30.14 in 10.0 mi SW 10.4 mph - N/A   Clear
1:53 PM 75.0 °F 53.1 °F 46% 30.11 in 10.0 mi WSW 11.5 mph 24.2 mph N/A   Clear
2:53 PM 77.0 °F 51.1 °F 40% 30.09 in 10.0 mi WSW 12.7 mph - N/A   Partly Cloudy
3:53 PM 77.0 °F 51.1 °F 40% 30.09 in 10.0 mi WSW 11.5 mph 20.7 mph N/A   Scattered Clouds
4:53 PM 75.9 °F 52.0 °F 43% 30.09 in 10.0 mi WSW 15.0 mph 21.9 mph N/A   Scattered Clouds
5:53 PM 75.0 °F 51.1 °F 43% 30.09 in 10.0 mi WSW 12.7 mph 21.9 mph N/A   Clear
6:53 PM 73.0 °F 53.1 °F 49% 30.08 in 10.0 mi SW 9.2 mph - N/A   Clear
7:53 PM 70.0 °F 53.1 °F 55% 30.09 in 10.0 mi SSW 6.9 mph - N/A   Clear
8:53 PM 69.1 °F 53.1 °F 57% 30.09 in 10.0 mi SSW 4.6 mph - N/A   Clear
9:53 PM 68.0 °F 54.0 °F 61% 30.09 in 10.0 mi SSW 8.1 mph - N/A   Clear
10:53 PM 66.9 °F 55.0 °F 66% 30.08 in 10.0 mi SSW 6.9 mph - N/A   Clear
11:53 PM 66.9 °F 55.0 °F 66% 30.08 in 10.0 mi SW 9.2 mph - N/A   Clear